Вернуться в каталог

SBS 6

АктивенСвязьGEO
NORAD 20872·PAYLOAD·🇺🇸 United States

Запущен Oct 12, 1990 с Guiana Space Centre

Loading…

TLE

СвежийSource: Space-Track

Эпоха: Sep 14, 2026, 10:45 UTC

1 20872U 90091A   26257.44792763  .00000042  00000-0  00000-0 0  9998
2 20872  12.7713  28.0932 0008172 155.7200 207.9980  0.98990773 46988

Отслеживайте SBS 6 в реальном времени с AllMySat

Download on the App Store